Temperature
14 14 14 14 14 14 15 15 15 15 15 16 15 15 15 14 14 14 13 13 14 14 14 14 14 14 14 15 15 15 15 15 15 15 15 15 15 15
14 14 14 14 14 14 14 14 14 14 14 15 15 15 15 14 14 14 13 13 13 13 13 14 14 14 14 14 14 14 14 14 15 15 15 15 15 15
14 14 14 14 14 14 14 14 14 14 14 14 14 14 14 14 14 13 13 13 13 13 13 13 13 14 14 14 14 14 14 14 14 14 14 14 14 14
14 14 14 14 14 14 14 14 14 14 14 14 14 14 14 14 14 13 13 13 13 13 13 13 13 13 13 13 14 14 14 14 14 14 14 14 14 14
15 14 14 14 14 14 14 14 14 14 14 13 14 14 14 14 13 13 13 13 13 13 13 13 13 13 13 13 13 13 14 14 14 14 14 14 14 14
15 15 15 14 14 14 14 14 14 14 14 13 13 13 14 14 14 14 13 13 13 13 13 13 13 13 13 13 13 13 13 13 13 13 13 13 13 13
15 15 15 15 15 14 14 14 13 13 13 13 13 13 14 14 14 14 13 13 13 13 13 13 13 13 13 13 13 13 13 13 13 13 13 13 13 13
15 15 15 15 15 15 15 14 14 14 13 13 13 13 13 13 13 13 13 13 13 13 13 13 13 13 13 13 13 13 13 13 13 13 13 13 13 13
15 15 15 14 15 15 15 15 14 14 14 14 13 14 14 13 13 13 13 12 12 12 12 12 12 12 12 12 12 13 13 13 13 12 12 12 12 12
15 15 15 15 15 14 14 14 14 14 14 14 14 14 14 13 13 13 12 12 12 12 12 12 12 12 12 12 12 12 12 12 12 12 12 12 12 12
15 15 15 14 14 14 14 14 13 14 13 13 13 13 13 13 13 12 12 11 11 12 12 12 12 12 12 12 12 12 12 12 12 12 12 12 12 12
14 14 14 14 14 14 13 13 13 13 13 13 13 13 13 13 12 12 12 11 11 11 12 12 12 12 12 12 12 12 12 12 12 12 12 12 12 11
13 13 13 13 13 13 13 13 13 13 13 12 12 12 12 12 12 12 12 12 11 11 12 12 12 12 12 12 12 12 12 12 12 12 12 12 12 11
12 12 12 12 12 12 12 13 13 12 12 12 11 11 12 12 12 12 12 12 12 12 12 12 12 12 12 11 11 11 12 12 12 12 12 12 12 11
11 11 11 11 11 12 12 12 12 12 11 11 11 11 11 11 12 12 12 12 12 12 12 12 11 11 11 11 11 11 11 11 11 11 11 11 11 11
11 10 10 11 11 11 11 11 11 11 11 11 11 11 11 11 11 11 11 12 12 11 11 11 11 11 11 11 10 10 10 10 11 11 11 11 11 11
9 9 10 10 9 10 10 10 11 11 11 11 10 10 10 10 11 11 11 11 11 11 11 11 11 11 11 11 10 10 10 10 10 10 11 11 11 11
9 9 9 9 9 9 9 10 10 10 10 10 10 10 10 10 10 10 10 10 10 11 11 11 11 11 11 10 10 10 10 10 10 10 10 10 10 11
8 8 8 8 8 8 8 9 9 9 9 9 10 10 10 9 9 10 10 10 10 10 10 10 10 10 10 10 10 10 10 10 10 10 10 10 10 10
7 7 7 7 7 7 7 7 7 8 8 8 8 9 9 9 9 9 9 9 9 9 10 10 10 10 10 10 10 10 10 10 10 10 10 10 10 10
6 6 6 6 6 6 6 6 6 6 7 7 7 8 8 8 8 8 9 9 9 9 9 9 10 10 10 9 9 10 10 10 10 10 10 10 10 10
5 5 5 5 5 5 5 5 5 6 6 6 6 7 7 7 8 8 8 8 8 9 9 9 9 9 9 9 9 9 9 10 10 10 10 10 10 10
4 4 4 4 4 4 4 5 5 5 5 5 6 6 6 7 7 7 7 8 8 8 8 8 8 8 9 9 9 9 9 9 9 9 10 10 10 10
Wind_Speed
4 3 3 3 2 2 2 2 2 4 3 0 1 2 5 5 9 6 5 9 11 11 11 10 10 10 10 10 10 11 13 13 14 16 17 18 19 20
4 2 2 4 3 2 2 2 2 3 3 3 2 1 2 2 5 4 6 9 15 17 17 16 14 13 12 12 12 12 13 14 14 14 15 16 17 18
5 5 5 4 3 4 3 3 3 3 4 4 3 1 2 3 4 6 9 11 13 20 22 21 18 17 16 15 14 14 14 14 14 14 14 15 17 18
7 6 5 6 6 5 4 5 4 4 4 5 5 4 5 5 6 6 8 11 12 14 18 21 22 21 19 18 17 17 17 16 16 16 15 15 16 17
7 7 7 7 6 5 5 5 5 5 4 5 5 5 5 5 5 6 7 6 12 14 16 21 23 23 22 22 21 21 20 19 19 18 18 17 17 17
7 7 7 7 8 7 7 7 7 6 6 6 6 6 6 6 5 5 5 6 7 10 8 12 19 25 26 26 25 24 23 23 22 21 20 20 19 19
8 8 9 10 11 9 9 7 6 6 6 6 6 6 6 4 4 4 5 5 5 5 5 5 7 10 16 22 25 26 26 26 25 24 23 22 21 21
9 9 10 11 13 15 15 13 10 9 8 7 7 7 7 5 4 4 4 4 5 4 4 5 4 5 6 12 19 26 28 28 27 26 25 24 24 23
8 8 10 12 11 11 14 17 17 18 16 11 11 11 9 7 6 6 6 6 6 5 5 7 6 7 5 14 18 20 25 28 28 27 27 26 26 25
9 9 9 11 13 10 10 11 12 14 16 15 14 15 14 10 9 8 8 8 8 7 7 9 8 8 9 10 16 17 20 24 27 28 28 28 27 26
10 11 11 11 15 15 12 12 12 11 16 20 20 20 22 20 13 8 8 8 10 8 7 9 9 8 8 7 11 18 21 24 27 28 28 27 27 25
9 11 14 14 15 14 11 12 14 13 12 13 12 16 17 17 18 14 12 11 11 9 8 8 8 7 7 6 6 8 12 19 24 26 27 27 25 15
8 8 6 7 9 11 10 11 15 13 10 11 11 10 11 12 13 14 14 14 14 13 9 7 7 7 7 6 5 6 5 5 9 14 22 26 26 18
8 8 6 9 10 12 11 14 17 14 11 11 11 11 11 11 11 13 14 15 16 16 12 9 7 7 7 7 7 6 6 6 6 7 7 16 22 25
9 11 13 15 15 12 15 17 14 11 11 13 13 13 11 11 11 11 12 14 16 18 19 15 13 10 9 9 9 8 8 7 7 8 7 8 8 7
8 11 14 16 15 15 15 13 11 11 12 13 12 11 10 11 11 11 11 10 11 12 13 16 13 14 12 12 10 10 9 8 7 7 7 7 6 7
8 8 9 10 9 9 9 9 9 9 11 11 11 12 12 12 11 9 9 9 10 11 10 10 12 12 14 12 12 11 10 9 8 8 7 8 7 8
6 9 10 10 11 10 10 9 9 9 9 9 10 11 11 11 11 10 10 10 11 11 10 9 9 9 9 11 15 14 11 10 9 9 8 9 9 8
7 9 9 9 9 10 10 10 10 10 9 9 10 10 10 10 11 11 11 11 11 10 10 8 9 9 11 13 11 16 14 12 10 9 8 9 9 8
7 9 9 9 9 9 9 10 10 11 11 10 10 9 9 10 10 11 10 11 10 10 9 9 9 11 12 12 8 8 15 13 10 10 9 8 9 10
9 9 10 10 10 9 9 9 10 11 11 11 11 11 10 10 10 10 10 12 11 10 10 10 10 12 9 8 9 9 9 14 14 11 9 8 8 7
9 10 10 10 10 10 9 10 10 11 11 11 11 11 10 10 10 11 10 10 9 9 10 9 7 7 8 10 11 10 10 9 12 17 17 13 9 9
10 10 10 10 9 9 9 10 12 11 11 10 11 10 10 9 9 9 9 8 8 9 8 8 7 7 8 9 9 9 11 11 9 8 10 15 20 21
Wind_Direction
252 218 232 281 256 276 313 321 316 318 329 117 201 154 154 167 172 206 225 215 219 230 238 242 247 250 253 257 260 259 257 257 255 252 248 247 244 243
238 250 249 292 309 279 263 278 284 291 300 321 281 188 150 214 188 231 262 245 229 234 239 239 240 243 248 253 257 259 260 260 258 255 252 250 249 248
238 231 217 237 279 310 299 272 257 258 272 291 304 313 200 219 228 245 263 260 247 242 237 234 233 235 240 245 249 253 256 257 257 255 254 251 249 247
227 236 233 234 218 236 268 280 273 259 251 271 281 277 260 228 218 223 249 265 269 264 237 229 228 231 235 239 244 247 249 250 250 250 251 251 250 248
227 228 229 235 238 233 240 256 269 272 249 253 265 261 257 248 232 231 244 251 265 269 240 228 229 231 235 239 241 243 244 244 245 245 247 249 251 251
236 235 234 231 232 229 239 240 247 260 266 261 258 257 251 241 222 224 246 244 251 262 257 232 228 231 234 237 240 241 242 242 243 244 245 246 248 250
236 237 239 236 236 233 240 239 242 243 252 257 260 262 258 252 240 231 247 256 254 251 254 248 227 223 230 238 241 243 242 241 241 242 243 245 246 248
232 235 241 240 234 230 235 239 240 246 252 257 264 263 265 268 267 264 262 266 270 264 264 266 258 248 233 233 234 236 238 238 238 239 240 242 244 246
252 250 254 255 241 230 229 233 240 241 238 243 255 259 266 271 277 275 267 264 263 266 286 276 268 266 260 267 261 245 234 233 234 235 236 238 240 242
254 256 255 258 264 258 247 239 233 236 234 235 242 248 251 252 254 258 259 264 260 252 243 258 256 253 259 258 262 253 237 231 231 232 233 235 238 240
254 256 256 255 255 255 256 256 253 248 240 233 225 230 235 240 242 253 254 257 262 256 237 244 248 246 244 245 249 247 237 233 231 232 233 235 238 240
256 255 254 255 261 258 254 255 256 255 257 259 243 238 240 241 235 232 240 249 256 259 245 243 249 245 253 244 240 243 236 238 236 235 236 237 238 235
270 272 272 278 271 270 262 258 259 262 262 258 258 251 240 236 234 230 229 234 242 246 244 242 251 247 245 250 247 242 227 229 229 234 238 240 237 225
277 282 292 323 313 293 277 265 265 267 267 262 258 256 252 246 240 233 227 224 229 236 242 244 253 256 259 263 263 257 250 238 230 229 222 230 234 230
279 290 302 303 300 289 270 263 263 262 258 259 258 257 255 254 250 245 238 231 229 233 238 235 241 247 247 253 259 259 261 256 242 238 235 228 220 211
297 304 304 290 280 271 272 268 254 250 250 255 259 261 262 260 257 253 250 243 240 238 233 232 230 233 241 243 248 254 253 254 252 248 241 238 228 214
316 301 292 287 283 278 275 270 263 256 252 254 260 264 264 263 262 259 256 251 248 246 241 232 230 230 232 235 244 247 250 251 248 247 247 250 247 238
297 288 288 287 288 289 287 287 283 279 273 267 264 262 263 264 265 261 257 255 253 250 246 245 239 236 238 241 232 243 248 250 249 245 243 248 253 246
281 284 287 293 299 302 302 302 299 297 293 285 278 273 268 265 264 264 262 259 256 252 247 243 241 238 243 249 237 220 233 241 241 242 241 241 248 247
298 301 304 305 305 307 310 312 311 310 305 300 292 286 282 275 269 266 263 262 260 257 250 243 239 238 240 248 253 245 222 232 240 243 245 246 247 249
314 315 314 313 313 312 313 312 309 306 305 304 297 290 284 279 275 270 266 265 260 259 257 253 245 238 243 247 253 254 243 226 228 234 236 242 249 253
318 317 316 314 315 313 312 312 310 307 304 301 298 293 287 281 278 276 273 270 263 258 258 258 255 247 240 244 250 256 257 250 237 237 238 235 239 244
324 321 318 317 315 312 311 312 311 308 308 307 306 303 297 293 289 283 279 277 275 271 270 270 266 256 250 247 248 252 256 258 255 249 247 239 236 242
Height
1555 1555 1555 1556 1557 1558 1558 1559 1559 1558 1558 1558 1558 1557 1557 1557 1556 1556 1555 1554 1554 1553 1553 1553 1553 1554 1554 1555 1555 1556 1557 1558 1559 1560 1561 1563 1564 1566
1552 1553 1554 1554 1555 1556 1556 1557 1557 1557 1556 1556 1556 1555 1555 1555 1554 1552 1551 1551 1550 1549 1549 1549 1549 1549 1549 1550 1550 1551 1551 1552 1553 1554 1555 1556 1558 1559
1551 1551 1552 1552 1552 1553 1554 1554 1554 1554 1554 1553 1553 1553 1551 1551 1550 1549 1548 1547 1546 1545 1545 1545 1545 1544 1544 1544 1544 1545 1545 1546 1546 1547 1548 1550 1551 1552
1548 1549 1549 1550 1550 1550 1550 1550 1551 1551 1551 1549 1549 1549 1548 1547 1546 1545 1544 1543 1542 1542 1541 1540 1540 1540 1539 1539 1538 1538 1539 1539 1540 1541 1542 1543 1544 1545
1546 1546 1546 1547 1546 1547 1547 1547 1547 1547 1547 1546 1545 1545 1544 1543 1542 1541 1540 1539 1538 1537 1536 1536 1535 1535 1534 1534 1533 1533 1533 1533 1534 1535 1535 1536 1537 1538
1542 1542 1543 1543 1543 1543 1543 1542 1542 1542 1542 1541 1540 1540 1539 1539 1538 1537 1535 1535 1534 1533 1533 1531 1530 1530 1529 1529 1528 1527 1527 1527 1527 1528 1529 1529 1530 1531
1538 1538 1538 1538 1538 1538 1538 1538 1538 1537 1537 1536 1536 1535 1535 1534 1533 1532 1531 1530 1529 1529 1528 1527 1526 1524 1524 1523 1523 1522 1522 1521 1521 1521 1522 1522 1523 1524
1533 1533 1533 1533 1533 1533 1533 1533 1533 1532 1531 1531 1530 1529 1528 1529 1528 1527 1526 1525 1523 1524 1523 1521 1520 1519 1518 1518 1517 1516 1516 1516 1515 1515 1515 1515 1515 1516
1528 1528 1528 1528 1528 1527 1526 1526 1526 1525 1525 1524 1523 1522 1522 1522 1522 1521 1519 1518 1516 1516 1516 1513 1513 1512 1512 1511 1511 1510 1510 1509 1509 1509 1508 1508 1508 1508
1522 1522 1522 1521 1522 1521 1521 1519 1518 1517 1517 1516 1515 1514 1515 1515 1515 1514 1513 1511 1509 1508 1509 1506 1505 1504 1504 1504 1504 1504 1503 1502 1502 1502 1501 1500 1500 1499
1515 1515 1514 1514 1514 1514 1513 1512 1510 1509 1509 1508 1507 1506 1506 1506 1507 1506 1504 1504 1501 1500 1501 1500 1498 1497 1497 1496 1497 1496 1496 1495 1495 1494 1494 1493 1492 1492
1508 1508 1507 1507 1506 1506 1505 1503 1501 1500 1500 1500 1499 1497 1497 1496 1497 1497 1496 1495 1493 1491 1492 1493 1491 1491 1490 1489 1489 1489 1488 1488 1487 1487 1487 1486 1486 1484
1501 1501 1500 1499 1498 1497 1496 1494 1493 1492 1491 1490 1489 1488 1487 1486 1486 1485 1485 1485 1484 1482 1483 1485 1484 1484 1483 1481 1481 1481 1481 1480 1480 1479 1479 1479 1479 1478
1494 1493 1493 1491 1490 1488 1487 1485 1484 1483 1481 1479 1478 1477 1477 1476 1476 1475 1474 1473 1473 1472 1474 1476 1476 1476 1475 1473 1472 1472 1473 1473 1472 1472 1471 1471 1471 1470
1487 1485 1484 1482 1481 1479 1477 1476 1475 1473 1471 1469 1467 1466 1466 1466 1466 1466 1465 1464 1463 1463 1463 1464 1465 1466 1466 1465 1464 1464 1464 1464 1464 1464 1464 1463 1463 1462
1480 1478 1476 1474 1472 1470 1468 1466 1465 1463 1461 1459 1457 1456 1456 1456 1455 1455 1455 1454 1453 1451 1452 1454 1455 1456 1455 1455 1455 1454 1455 1454 1455 1456 1456 1455 1455 1454
1473 1470 1468 1466 1464 1462 1460 1459 1457 1455 1453 1451 1449 1447 1446 1445 1444 1444 1444 1443 1442 1441 1441 1443 1444 1445 1445 1446 1445 1445 1445 1445 1445 1446 1447 1446 1446 1446
1468 1464 1462 1460 1458 1456 1454 1451 1449 1447 1445 1443 1440 1438 1436 1435 1434 1433 1433 1432 1431 1431 1431 1433 1434 1435 1435 1435 1436 1435 1436 1436 1436 1437 1438 1437 1436 1437
1463 1460 1457 1455 1452 1450 1447 1445 1442 1440 1437 1434 1432 1430 1428 1426 1425 1424 1423 1422 1421 1421 1421 1422 1424 1424 1425 1424 1424 1427 1427 1427 1427 1428 1428 1428 1427 1428
1458 1456 1453 1450 1447 1445 1441 1438 1435 1432 1429 1426 1424 1421 1419 1418 1416 1415 1414 1413 1412 1411 1411 1412 1414 1414 1415 1416 1416 1417 1419 1419 1419 1419 1419 1419 1419 1420
1454 1451 1448 1445 1442 1439 1436 1432 1429 1426 1422 1419 1416 1414 1412 1410 1408 1406 1405 1404 1403 1403 1403 1403 1404 1406 1406 1408 1407 1406 1409 1410 1410 1411 1411 1411 1411 1411
1449 1446 1443 1440 1436 1433 1430 1426 1423 1419 1416 1413 1409 1406 1405 1403 1401 1399 1398 1396 1395 1395 1394 1395 1396 1397 1397 1398 1397 1398 1399 1401 1401 1402 1402 1403 1402 1401
1444 1440 1437 1434 1430 1427 1424 1420 1417 1413 1410 1406 1403 1400 1398 1395 1394 1392 1390 1390 1389 1388 1388 1387 1388 1388 1389 1389 1389 1390 1391 1391 1392 1392 1392 1392 1393 1393